| time (UTC) | temp F | wind direction | speed MPH | gust MPH | rain 1hr in | rain 24hr in | rain mn in | humidity % | barometer mb |
| 20260505054404 | 58 | 174 | 5.0 | 15.0 | 0.00 | 0.05 | 0.00 | 55 | 1002.7 |
| 20260505053404 | 58 | 164 | 5.0 | 18.0 | 0.00 | 0.05 | 0.00 | 56 | 1002.8 |
| 20260505052403 | 58 | 159 | 5.0 | 11.0 | 0.00 | 0.05 | 0.00 | 57 | 1002.9 |
| 20260505051404 | 58 | 172 | 3.0 | 11.0 | 0.00 | 0.05 | 0.00 | 57 | 1002.9 |
| 20260505050404 | 58 | 190 | 2.0 | 14.0 | 0.00 | 0.05 | 0.00 | 57 | 1003.0 |
| 20260505041403 | 56 | 169 | 4.0 | 11.0 | 0.00 | 0.05 | 0.00 | 61 | 1003.2 |
| 20260505040426 | 55 | 181 | 2.0 | 10.0 | 0.00 | 0.05 | 0.00 | 63 | 1003.3 |
| 20260505035403 | 55 | 167 | 3.0 | 10.0 | 0.00 | 0.05 | 0.05 | 63 | 1003.3 |
| 20260505034404 | 55 | 161 | 2.0 | 7.0 | 0.00 | 0.05 | 0.05 | 63 | 1003.3 |
| 20260505033446 | 55 | 181 | 1.0 | 7.0 | 0.00 | 0.05 | 0.05 | 63 | 1003.3 |
| 20260505032425 | 56 | 150 | 1.0 | 8.0 | 0.00 | 0.05 | 0.05 | 62 | 1003.3 |
| 20260505031403 | 56 | 161 | 1.0 | 9.0 | 0.00 | 0.05 | 0.05 | 61 | 1003.4 |
| 20260505030404 | 56 | 177 | 0.0 | 7.0 | 0.00 | 0.05 | 0.05 | 61 | 1003.5 |
| 20260505025404 | 56 | 168 | 3.0 | 9.0 | 0.00 | 0.05 | 0.05 | 61 | 1003.6 |
| 20260505024424 | 55 | 169 | 2.0 | 9.0 | 0.00 | 0.05 | 0.05 | 63 | 1003.6 |
| 20260505023404 | 55 | 174 | 1.0 | 6.0 | 0.00 | 0.05 | 0.05 | 64 | 1003.6 |
| 20260505022425 | 55 | 180 | 1.0 | 6.0 | 0.00 | 0.05 | 0.05 | 63 | 1003.7 |
| 20260505021404 | 55 | 183 | 0.0 | 3.0 | 0.00 | 0.05 | 0.05 | 63 | 1003.8 |
| 20260505020404 | 55 | 184 | 0.0 | 3.0 | 0.00 | 0.05 | 0.05 | 63 | 1003.8 |
| 20260505015404 | 56 | 184 | 0.0 | 4.0 | 0.00 | 0.05 | 0.05 | 62 | 1003.9 |
| 20260505013404 | 56 | 185 | 1.0 | 4.0 | 0.00 | 0.05 | 0.05 | 61 | 1003.9 |
| 20260505012403 | 57 | 184 | 1.0 | 5.0 | 0.00 | 0.05 | 0.05 | 59 | 1003.8 |
| 20260505011425 | 57 | 184 | 1.0 | 6.0 | 0.00 | 0.05 | 0.05 | 58 | 1003.8 |
| 20260505010404 | 57 | 186 | 1.0 | 6.0 | 0.00 | 0.05 | 0.05 | 58 | 1003.7 |
| 20260505005403 | 57 | 183 | 1.0 | 5.0 | 0.00 | 0.05 | 0.05 | 58 | 1003.7 |
| 20260505004404 | 58 | 183 | 2.0 | 5.0 | 0.00 | 0.05 | 0.05 | 57 | 1003.7 |
| 20260505003403 | 58 | 184 | 1.0 | 4.0 | 0.00 | 0.05 | 0.05 | 56 | 1003.6 |
| 20260505002403 | 59 | 184 | 1.0 | 7.0 | 0.00 | 0.05 | 0.05 | 56 | 1003.6 |
| 20260505001403 | 59 | 201 | 2.0 | 5.0 | 0.00 | 0.05 | 0.05 | 55 | 1003.4 |
| 20260505000405 | 61 | 205 | 1.0 | 7.0 | 0.00 | 0.05 | 0.05 | 54 | 1003.3 |
| 20260504235404 | 61 | 194 | 2.0 | 7.0 | 0.00 | 0.05 | 0.05 | 52 | 1003.2 |
| 20260504234403 | 62 | 187 | 2.0 | 6.0 | 0.00 | 0.05 | 0.05 | 51 | 1003.1 |
| 20260504233404 | 63 | 201 | 3.0 | 9.0 | 0.00 | 0.05 | 0.05 | 50 | 1003.0 |
| 20260504232404 | 63 | 183 | 2.0 | 7.0 | 0.00 | 0.05 | 0.05 | 50 | 1002.9 |
| 20260504231404 | 64 | 211 | 3.0 | 10.0 | 0.00 | 0.05 | 0.05 | 49 | 1002.8 |
| 20260504230403 | 65 | 206 | 2.0 | 7.0 | 0.00 | 0.05 | 0.05 | 49 | 1002.7 |
| 20260504225403 | 64 | 189 | 2.0 | 8.0 | 0.00 | 0.05 | 0.05 | 50 | 1002.6 |
| 20260504224403 | 65 | 191 | 3.0 | 10.0 | 0.00 | 0.05 | 0.05 | 50 | 1002.5 |
| 20260504223404 | 65 | 220 | 4.0 | 10.0 | 0.00 | 0.05 | 0.05 | 49 | 1002.4 |
| 20260504222403 | 66 | 192 | 3.0 | 10.0 | 0.00 | 0.05 | 0.05 | 47 | 1002.3 |
| 20260504221425 | 67 | 220 | 5.0 | 12.0 | 0.00 | 0.05 | 0.05 | 46 | 1002.4 |
| 20260504220403 | 66 | 226 | 3.0 | 9.0 | 0.00 | 0.05 | 0.05 | 47 | 1002.4 |
| 20260504215403 | 66 | 202 | 4.0 | 10.0 | 0.00 | 0.05 | 0.05 | 48 | 1002.4 |
| 20260504214424 | 66 | 240 | 2.0 | 10.0 | 0.00 | 0.05 | 0.05 | 47 | 1002.3 |
| 20260504213403 | 66 | 175 | 5.0 | 10.0 | 0.00 | 0.05 | 0.05 | 47 | 1002.4 |
| 20260504211403 | 66 | 209 | 3.0 | 12.0 | 0.00 | 0.05 | 0.05 | 47 | 1002.3 |
| 20260504210403 | 66 | 217 | 4.0 | 12.0 | 0.00 | 0.05 | 0.05 | 48 | 1002.3 |
| 20260504205403 | 66 | 199 | 3.0 | 9.0 | 0.00 | 0.05 | 0.05 | 48 | 1002.4 |
| 20260504204403 | 67 | 180 | 4.0 | 14.0 | 0.00 | 0.05 | 0.05 | 46 | 1002.4 |
| 20260504203404 | 68 | 219 | 4.0 | 12.0 | 0.00 | 0.05 | 0.05 | 48 | 1002.4 |
| 20260504202424 | 68 | 197 | 5.0 | 14.0 | 0.00 | 0.05 | 0.05 | 48 | 1002.4 |
| 20260504201424 | 67 | 203 | 7.0 | 13.0 | 0.00 | 0.05 | 0.05 | 47 | 1002.7 |
| 20260504200403 | 67 | 168 | 4.0 | 16.0 | 0.00 | 0.05 | 0.05 | 48 | 1002.7 |
| 20260504195403 | 66 | 171 | 3.0 | 15.0 | 0.00 | 0.05 | 0.05 | 49 | 1002.9 |
| 20260504194424 | 66 | 172 | 5.0 | 14.0 | 0.00 | 0.05 | 0.05 | 51 | 1003.1 |
| 20260504193403 | 65 | 202 | 6.0 | 14.0 | 0.00 | 0.05 | 0.05 | 51 | 1003.2 |
| 20260504192403 | 65 | 221 | 6.0 | 14.0 | 0.00 | 0.05 | 0.05 | 51 | 1003.4 |
| 20260504191404 | 64 | 184 | 6.0 | 12.0 | 0.00 | 0.05 | 0.05 | 54 | 1003.5 |
| 20260504190403 | 64 | 184 | 5.0 | 10.0 | 0.00 | 0.05 | 0.05 | 55 | 1003.6 |
| 20260504185423 | 62 | 185 | 7.0 | 14.0 | 0.00 | 0.05 | 0.05 | 55 | 1003.8 |
| 20260504184403 | 62 | 193 | 4.0 | 14.0 | 0.00 | 0.05 | 0.05 | 56 | 1004.0 |
| 20260504183403 | 62 | 215 | 4.0 | 14.0 | 0.00 | 0.05 | 0.05 | 59 | 1004.0 |
| 20260504182403 | 62 | 237 | 7.0 | 18.0 | 0.00 | 0.05 | 0.05 | 57 | 1004.1 |
| 20260504181403 | 61 | 181 | 8.0 | 17.0 | 0.00 | 0.05 | 0.05 | 57 | 1004.5 |
| 20260504180403 | 62 | 186 | 5.0 | 14.0 | 0.00 | 0.05 | 0.05 | 57 | 1004.5 |
| 20260504175403 | 61 | 229 | 6.0 | 15.0 | 0.00 | 0.05 | 0.05 | 63 | 1004.6 |
| 20260504174403 | 60 | 212 | 6.0 | 11.0 | 0.00 | 0.05 | 0.05 | 62 | 1004.7 |
| 20260504173403 | 59 | 211 | 4.0 | 11.0 | 0.00 | 0.05 | 0.05 | 65 | 1005.0 |
| 20260504172404 | 57 | 219 | 7.0 | 16.0 | 0.00 | 0.05 | 0.05 | 66 | 1005.1 |
| 20260504171404 | 56 | 236 | 5.0 | 14.0 | 0.00 | 0.05 | 0.05 | 69 | 1005.0 |
| 20260504170403 | 56 | 220 | 5.0 | 13.0 | 0.00 | 0.05 | 0.05 | 70 | 1005.1 |
| 20260504160403 | 48 | 173 | 4.0 | 11.0 | 0.00 | 0.05 | 0.05 | 84 | 1005.3 |
| 20260504150403 | 44 | 181 | 4.0 | 9.0 | 0.00 | 0.05 | 0.05 | 87 | 1005.7 |
| 20260504140403 | 44 | 183 | 3.0 | 8.0 | 0.01 | 0.05 | 0.05 | 86 | 1005.5 |
| 20260504130403 | 47 | 187 | 4.0 | 20.0 | 0.00 | 0.00 | 0.00 | 74 | 1004.8 |
| 20260504110402 | 45 | 167 | 5.0 | 14.0 | 0.00 | 0.00 | 0.00 | 84 | 1005.0 |
| 20260504100403 | 43 | 181 | 4.0 | 12.0 | 0.00 | 0.00 | 0.00 | 85 | 1005.4 |
| 20260504080403 | 43 | 205 | 2.0 | 8.0 | 0.00 | 0.00 | 0.00 | 74 | 1005.9 |